FW4092 Weather Reports


Display with metric or nautical units.
time (UTC)temp
F
wind
direction
speed
MPH
gust
MPH
rain 1hr
in
rain 24hr
in
rain mn
in
humidity
%
barometer
mb
20260510225513 77 304 8.0 16.0 0.00 0.00 0.00 36 1012.9
20260510225014 77 319 8.0 15.0 0.00 0.00 0.00 36 1012.9
20260510224517 77 296 8.0 18.0 0.00 0.00 0.00 37 1012.9
20260510224014 77 330 9.0 18.0 0.00 0.00 0.00 37 1012.9
20260510223515 77 321 9.0 19.0 0.00 0.00 0.00 36 1012.8
20260510223005 76 348 10.0 19.0 0.00 0.00 0.00 36 1012.9
20260510222959 76 291 9.0 17.0 0.00 0.00 0.00 36 1012.9
20260510222002 78 308 8.0 16.0 0.00 0.00 0.00 36 1012.9
20260510221502 78 325 8.0 17.0 0.00 0.00 0.00 36 1012.9
20260510221001 78 239 7.0 17.0 0.00 0.00 0.00 36 1012.9
20260510220502 78 315 5.0 13.0 0.00 0.00 0.00 36 1012.9
20260510220000 78 31 5.0 11.0 0.00 0.00 0.00 35 1012.8
20260510215500 77 5 5.0 13.0 0.00 0.00 0.00 35 1013.0
20260510215010 77 14 4.0 13.0 0.00 0.00 0.00 36 1012.8
20260510214756 77 5 6.0 12.0 0.00 0.00 0.00 35 1012.9
20260510214229 78 300 5.0 12.0 0.00 0.00 0.00 35 1013.0
20260510213457 78 313 3.0 10.0 0.00 0.00 0.00 35 1012.9
20260510212954 78 333 2.0 8.0 0.00 0.00 0.00 35 1012.8
20260510212454 77 229 3.0 8.0 0.00 0.00 0.00 35 1012.8
20260510212243 77 25 3.0 9.0 0.00 0.00 0.00 35 1012.9
20260510211454 76 319 4.0 10.0 0.00 0.00 0.00 37 1012.9
20260510210951 76 59 3.0 10.0 0.00 0.00 0.00 36 1012.8
20260510210442 76 35 4.0 11.0 0.00 0.00 0.00 37 1013.0
20260510210414 76 339 4.0 11.0 0.00 0.00 0.00 36 1013.0
20260510205433 76 273 3.0 11.0 0.00 0.00 0.00 36 1013.1
20260510204926 75 11 4.0 11.0 0.00 0.00 0.00 36 1013.2
20260510204705 75 338 4.0 10.0 0.00 0.00 0.00 36 1013.2
20260510203913 74 339 4.0 12.0 0.00 0.00 0.00 37 1013.2
20260510203410 74 350 5.0 12.0 0.00 0.00 0.00 37 1013.2
20260510202903 74 5 4.0 9.0 0.00 0.00 0.00 38 1013.2
20260510202355 74 240 3.0 9.0 0.00 0.00 0.00 37 1013.2
20260510201848 73 5 3.0 8.0 0.00 0.00 0.00 39 1013.2
20260510201343 73 86 4.0 10.0 0.00 0.00 0.00 38 1013.2
20260510200840 73 47 2.0 10.0 0.00 0.00 0.00 37 1013.3
20260510200330 72 121 3.0 7.0 0.00 0.00 0.00 38 1013.3
20260510200109 72 5 3.0 8.0 0.00 0.00 0.00 39 1013.3
20260510195603 72 297 3.0 9.0 0.00 0.00 0.00 37 1013.2
20260510195044 73 316 3.0 9.0 0.00 0.00 0.00 37 1013.2
20260510194310 73 329 2.0 9.0 0.00 0.00 0.00 38 1013.3
20260510194032 73 66 2.0 10.0 0.00 0.00 0.00 37 1013.3
20260510193254 72 32 3.0 10.0 0.00 0.00 0.00 39 1013.3
20260510192748 72 351 2.0 8.0 0.00 0.00 0.00 38 1013.3
20260510192528 71 16 2.0 8.0 0.00 0.00 0.00 38 1013.4
20260510192523 72 321 1.0 8.0 0.00 0.00 0.00 38 1013.3
20260510191232 71 40 2.0 8.0 0.00 0.00 0.00 38 1013.4
20260510191017 71 355 2.0 5.0 0.00 0.00 0.00 38 1013.2
20260510190220 71 22 2.0 8.0 0.00 0.00 0.00 38 1013.3
20260510185712 71 284 3.0 8.0 0.00 0.00 0.00 38 1013.3
20260510185246 71 33 2.0 8.0 0.00 0.00 0.00 38 1013.4
20260510185226 71 333 2.0 6.0 0.00 0.00 0.00 38 1013.3
20260510184154 70 63 3.0 9.0 0.00 0.00 0.00 39 1013.4
20260510183648 69 72 2.0 9.0 0.00 0.00 0.00 41 1013.5
20260510183144 68 80 1.0 8.0 0.00 0.00 0.00 42 1013.5
20260510182910 67 355 2.0 5.0 0.00 0.00 0.00 42 1013.6
20260510182418 67 348 3.0 5.0 0.00 0.00 0.00 42 1013.8
20260510181630 67 335 2.0 5.0 0.00 0.00 0.00 42 1013.6
20260510181133 66 344 2.0 5.0 0.00 0.00 0.00 42 1013.8
20260510180631 66 350 2.0 7.0 0.00 0.00 0.00 43 1013.6
20260510180130 65 9 2.0 7.0 0.00 0.00 0.00 45 1013.6
20260510175630 64 319 3.0 6.0 0.00 0.00 0.00 44 1013.8
20260510175412 64 31 2.0 6.0 0.00 0.00 0.00 44 1013.9
20260510174630 63 355 2.0 6.0 0.00 0.00 0.00 45 1013.9
20260510174131 63 355 2.0 5.0 0.00 0.00 0.00 44 1014.0
20260510173631 63 340 2.0 6.0 0.00 0.00 0.00 45 1013.9
20260510173131 62 343 2.0 6.0 0.00 0.00 0.00 44 1014.0
20260510172627 62 321 2.0 5.0 0.00 0.00 0.00 44 1014.1
20260510172127 62 336 2.0 5.0 0.00 0.00 0.00 44 1013.9
20260510171626 62 310 3.0 5.0 0.00 0.00 0.00 43 1013.9
20260510171126 62 304 2.0 5.0 0.00 0.00 0.00 44 1014.0
20260510170626 62 346 2.0 5.0 0.00 0.00 0.00 43 1013.9
20260510170135 62 15 1.0 3.0 0.00 0.00 0.00 43 1013.6
20260510165635 62 115 0.0 2.0 0.00 0.00 0.00 43 1013.6
20260510165134 62 119 1.0 2.0 0.00 0.00 0.00 43 1013.6
20260510164639 61 119 1.0 3.0 0.00 0.00 0.00 43 1013.5
20260510164358 61 117 1.0 3.0 0.00 0.00 0.00 43 1013.5
20260510163622 61 12 0.0 3.0 0.00 0.00 0.00 45 1013.5
20260510163118 60 0 1.0 2.0 0.00 0.00 0.00 44 1013.6
20260510162615 60 295 0.0 3.0 0.00 0.00 0.00 45 1013.9
20260510162118 60 142 0.0 3.0 0.00 0.00 0.00 47 1013.9
20260510161600 59 142 0.0 3.0 0.00 0.00 0.00 47 1014.0
20260510161052 58 145 0.0 3.0 0.00 0.00 0.00 45 1014.0
20260510160547 58 145 0.0 3.0 0.00 0.00 0.00 45 1013.9
20260510160040 57 145 0.0 2.0 0.00 0.00 0.00 47 1013.8
20260510155534 56 146 0.0 2.0 0.00 0.00 0.00 48 1013.9
20260510155028 56 146 0.0 2.0 0.00 0.00 0.00 49 1013.9
20260510154521 55 146 0.0 2.0 0.00 0.00 0.00 50 1013.9
20260510154017 54 146 0.0 1.0 0.00 0.00 0.00 51 1014.0
20260510153515 54 146 0.0 1.0 0.00 0.00 0.00 51 1014.0
20260510153009 53 146 0.0 2.0 0.00 0.00 0.00 52 1013.8
20260510152725 53 146 0.0 2.0 0.00 0.00 0.00 53 1013.9
20260510152507 53 146 0.0 2.0 0.00 0.00 0.00 53 1013.9
20260510152018 52 146 0.0 1.0 0.00 0.00 0.00 54 1014.0
20260510152014 53 146 0.0 1.0 0.00 0.00 0.00 53 1013.9
20260510150941 52 146 0.0 2.0 0.00 0.00 0.00 54 1013.9
20260510150435 51 146 1.0 3.0 0.00 0.00 0.00 54 1013.9
20260510145928 51 146 0.0 3.0 0.00 0.00 0.00 53 1014.0
20260510145424 51 145 1.0 2.0 0.00 0.00 0.00 53 1013.9
20260510144919 51 146 1.0 4.0 0.00 0.00 0.00 54 1013.9
20260510144644 50 146 1.0 4.0 0.00 0.00 0.00 54 1013.9
20260510143913 50 148 1.0 3.0 0.00 0.00 0.00 55 1013.8
20260510143631 50 146 0.0 2.0 0.00 0.00 0.00 56 1013.9
20260510142853 49 146 0.0 0.0 0.00 0.00 0.00 58 1013.9
20260510142346 49 146 0.0 0.0 0.00 0.00 0.00 58 1014.0
20260510142102 49 146 0.0 1.0 0.00 0.00 0.00 57 1014.0
20260510141852 49 146 0.0 1.0 0.00 0.00 0.00 57 1014.0
20260510141334 49 146 0.0 2.0 0.00 0.00 0.00 57 1014.0
20260510140830 49 146 0.0 2.0 0.00 0.00 0.00 56 1013.9
20260510140547 49 146 0.0 2.0 0.00 0.00 0.00 56 1013.8
20260510135824 49 146 0.0 2.0 0.00 0.00 0.00 55 1013.8
20260510135320 49 146 0.0 0.0 0.00 0.00 0.00 58 1013.6
20260510135046 49 146 0.0 2.0 0.00 0.00 0.00 57 1013.8
20260510134820 49 146 0.0 2.0 0.00 0.00 0.00 57 1013.8
20260510134315 48 146 0.0 2.0 0.00 0.00 0.00 58 1013.8
20260510133815 47 146 0.0 2.0 0.00 0.00 0.00 59 1013.6
20260510133556 46 146 0.0 2.0 0.00 0.00 0.00 59 1013.5
20260510133056 46 146 0.0 2.0 0.00 0.00 0.00 58 1013.6
20260510132313 46 146 0.0 2.0 0.00 0.00 0.00 59 1013.4
20260510132056 46 146 0.0 2.0 0.00 0.00 0.00 59 1013.5
20260510131601 45 146 0.0 2.0 0.00 0.00 0.00 60 1013.5
20260510130821 45 143 0.0 2.0 0.00 0.00 0.00 61 1013.4
20260510130310 44 143 0.0 2.0 0.00 0.00 0.00 62 1013.4
20260510125812 44 143 0.0 1.0 0.00 0.00 0.00 61 1013.4
20260510125309 45 143 1.0 3.0 0.00 0.00 0.00 61 1013.4
20260510124809 44 143 1.0 4.0 0.00 0.00 0.00 62 1013.5
20260510124312 44 152 1.0 4.0 0.00 0.00 0.00 63 1013.5
20260510123808 43 147 1.0 3.0 0.00 0.00 0.00 64 1013.4
20260510123522 43 148 0.0 1.0 0.00 0.00 0.00 63 1013.4
20260510123302 43 148 0.0 1.0 0.00 0.00 0.00 63 1013.4
20260510122756 43 148 0.0 0.0 0.00 0.00 0.00 60 1013.3
20260510122257 44 148 0.0 0.0 0.00 0.00 0.00 60 1013.2
20260510121754 45 148 0.0 0.0 0.00 0.00 0.00 59 1013.1
20260510121251 46 148 0.0 0.0 0.00 0.00 0.00 59 1013.2
20260510120749 47 148 0.0 1.0 0.00 0.00 0.00 57 1013.2
20260510120252 47 148 0.0 1.0 0.00 0.00 0.00 57 1013.2
20260510115749 48 148 0.0 0.0 0.00 0.00 0.00 57 1013.2
20260510115249 48 148 0.0 0.0 0.00 0.00 0.00 56 1013.3
20260510115030 48 148 0.0 0.0 0.00 0.00 0.00 57 1013.3
20260510114249 48 148 0.0 0.0 0.00 0.00 0.00 58 1013.3
20260510113748 48 148 0.0 0.0 0.00 0.00 0.00 57 1013.3
20260510113249 48 148 0.0 0.0 0.00 0.00 0.00 55 1013.2
20260510112748 49 148 0.0 0.0 0.00 0.00 0.00 53 1013.3
20260510112251 49 148 0.0 0.0 0.00 0.00 0.00 53 1013.3
20260510111749 50 148 0.0 0.0 0.00 0.00 0.00 52 1013.3
20260510111249 50 148 0.0 0.0 0.00 0.00 0.00 52 1013.3
20260510110749 50 148 0.0 2.0 0.00 0.00 0.00 52 1013.3
20260510110250 50 148 0.0 2.0 0.00 0.00 0.00 52 1013.3
20260510105757 50 148 0.0 2.0 0.00 0.00 0.00 52 1013.4
20260510105300 50 148 0.0 2.0 0.00 0.00 0.00 52 1013.3
20260510104755 50 149 0.0 2.0 0.00 0.00 0.00 53 1013.4
20260510104537 49 149 0.0 2.0 0.00 0.00 0.00 53 1013.3
20260510103745 49 149 0.0 2.0 0.00 0.00 0.00 53 1013.2
20260510103241 49 150 1.0 3.0 0.00 0.00 0.00 54 1013.2
20260510102730 49 148 1.0 3.0 0.00 0.00 0.00 54 1013.1
20260510102500 49 287 0.0 2.0 0.00 0.00 0.00 54 1013.3
20260510101726 49 298 0.0 0.0 0.00 0.00 0.00 54 1013.4
20260510101452 49 298 0.0 0.0 0.00 0.00 0.00 53 1013.3
20260510100720 49 298 0.0 0.0 0.00 0.00 0.00 53 1013.3
20260510100426 50 299 0.0 0.0 0.00 0.00 0.00 52 1013.3
20260510100214 50 299 0.0 0.0 0.00 0.00 0.00 52 1013.3
20260510095926 50 299 0.0 0.0 0.00 0.00 0.00 51 1013.4
20260510095149 51 298 0.0 0.0 0.00 0.00 0.00 51 1013.4
20260510094926 52 298 0.0 0.0 0.00 0.00 0.00 50 1013.4
20260510094137 52 298 0.0 0.0 0.00 0.00 0.00 50 1013.5
20260510093630 53 298 0.0 0.0 0.00 0.00 0.00 50 1013.5
20260510093128 53 298 0.0 1.0 0.00 0.00 0.00 50 1013.5
20260510092622 53 298 0.0 1.0 0.00 0.00 0.00 50 1013.4
20260510092350 52 298 0.0 0.0 0.00 0.00 0.00 50 1013.4
20260510091610 53 298 0.0 0.0 0.00 0.00 0.00 50 1013.5
20260510091111 53 298 0.0 0.0 0.00 0.00 0.00 49 1013.5
20260510090556 53 298 0.0 0.0 0.00 0.00 0.00 48 1013.5
20260510090049 53 298 0.0 0.0 0.00 0.00 0.00 48 1013.5
20260510085547 54 298 0.0 0.0 0.00 0.00 0.00 48 1013.6
20260510085043 55 298 0.0 0.0 0.00 0.00 0.00 47 1013.6
20260510085039 54 298 0.0 0.0 0.00 0.00 0.00 48 1013.6
20260510084028 55 298 0.0 0.0 0.00 0.00 0.00 46 1013.5
20260510083520 55 298 0.0 0.0 0.00 0.00 0.00 46 1013.5
20260510083017 56 298 0.0 0.0 0.00 0.00 0.00 45 1013.5
20260510082514 56 298 0.0 0.0 0.00 0.00 0.00 45 1013.5
20260510082008 56 298 0.0 0.0 0.00 0.00 0.00 45 1013.6
20260510081502 56 298 0.0 0.0 0.00 0.00 0.00 45 1013.6
20260510080949 56 298 0.0 0.0 0.00 0.00 0.00 44 1013.6
20260510080443 56 298 0.0 0.0 0.00 0.00 0.00 44 1013.6
20260510075940 56 298 0.0 0.0 0.00 0.00 0.00 43 1013.6
20260510075434 56 298 0.0 0.0 0.00 0.00 0.00 43 1013.8
20260510074929 57 298 0.0 0.0 0.00 0.00 0.00 42 1013.6
20260510074418 57 298 0.0 0.0 0.00 0.00 0.00 42 1013.8
20260510074201 57 298 0.0 0.0 0.00 0.00 0.00 42 1013.6
20260510073410 58 298 0.0 0.0 0.00 0.00 0.00 41 1013.6
20260510073136 58 298 0.0 0.0 0.00 0.00 0.00 41 1013.6
20260510072358 58 298 0.0 0.0 0.00 0.00 0.00 41 1013.6
20260510071851 58 298 0.0 1.0 0.00 0.00 0.00 40 1013.8
20260510071620 59 298 0.0 1.0 0.00 0.00 0.00 40 1013.8
20260510070842 59 298 0.0 1.0 0.00 0.00 0.00 40 1013.8
20260510070607 59 298 0.0 1.0 0.00 0.00 0.00 40 1013.8
20260510065829 59 298 0.0 2.0 0.00 0.00 0.00 39 1013.8
20260510065325 60 298 0.0 3.0 0.00 0.00 0.00 39 1013.8
20260510064815 60 298 1.0 3.0 0.00 0.00 0.00 39 1013.6
20260510064314 60 298 1.0 3.0 0.00 0.00 0.00 39 1013.6
20260510064049 60 298 2.0 4.0 0.00 0.00 0.00 39 1013.8
20260510063532 61 299 2.0 4.0 0.00 0.00 0.00 39 1013.6
20260510062811 61 293 2.0 4.0 0.00 0.00 0.00 39 1013.6
20260510062306 61 286 2.0 4.0 0.00 0.00 0.00 39 1013.6
20260510062027 61 300 2.0 4.0 0.00 0.00 0.00 39 1013.6
20260510061523 61 308 2.0 4.0 0.00 0.00 0.00 39 1013.6
20260510061310 61 308 2.0 4.0 0.00 0.00 0.00 39 1013.6
20260510060801 62 306 2.0 4.0 0.00 0.00 0.00 38 1013.8
20260510060528 62 302 2.0 4.0 0.00 0.00 0.00 38 1013.8
20260510060308 62 302 2.0 4.0 0.00 0.00 0.00 38 1013.8
20260510060306 62 300 2.0 5.0 0.00 0.00 0.00 38 1013.8
20260510055807 62 300 2.0 5.0 0.00 0.00 0.00 38 1013.8
20260510055306 62 310 2.0 5.0 0.00 0.00 0.00 37 1013.8
20260510054815 62 325 2.0 5.0 0.00 0.00 0.00 37 1013.8
20260510054312 63 307 2.0 4.0 0.00 0.00 0.00 37 1013.8
20260510054044 63 306 2.0 4.0 0.00 0.00 0.00 36 1013.8
20260510053302 63 306 2.0 6.0 0.00 0.00 0.00 36 1013.8
20260510052811 64 296 3.0 6.0 0.00 0.00 0.00 35 1013.8
20260510052524 64 305 3.0 7.0 0.00 0.00 0.00 35 1013.9
20260510052307 64 305 3.0 7.0 0.00 0.00 0.00 35 1013.9
20260510051800 65 290 3.0 7.0 0.00 0.00 0.00 34 1013.8
20260510051308 66 327 2.0 4.0 0.00 0.00 0.00 35 1013.8
20260510051301 65 324 2.0 4.0 0.00 0.00 0.00 34 1013.8
20260510050253 66 347 2.0 5.0 0.00 0.00 0.00 35 1013.6
20260510045747 66 355 2.0 5.0 0.00 0.00 0.00 35 1013.8
20260510045523 67 346 2.0 5.0 0.00 0.00 0.00 34 1013.6
20260510044736 67 336 2.0 5.0 0.00 0.00 0.00 34 1013.6
20260510044230 67 355 2.0 6.0 0.00 0.00 0.00 34 1013.6
20260510044015 68 350 3.0 8.0 0.00 0.00 0.00 33 1013.5
20260510043217 68 355 3.0 8.0 0.00 0.00 0.00 32 1013.4
20260510042743 68 5 3.0 8.0 0.00 0.00 0.00 31 1013.3
20260510042727 68 348 3.0 8.0 0.00 0.00 0.00 32 1013.4
20260510041701 69 355 3.0 8.0 0.00 0.00 0.00 31 1013.3
20260510041153 69 346 3.0 8.0 0.00 0.00 0.00 30 1013.2
20260510040928 69 11 3.0 10.0 0.00 0.00 0.00 29 1013.2
20260510040142 69 350 3.0 10.0 0.00 0.00 0.00 27 1013.1
20260510035917 70 346 3.0 13.0 0.00 0.00 0.00 26 1013.1
20260510035129 70 355 3.0 13.0 0.00 0.00 0.00 25 1013.0
20260510034623 70 355 3.0 8.0 0.00 0.00 0.00 24 1012.9
20260510034117 71 355 3.0 8.0 0.00 0.00 0.00 23 1012.8
20260510033612 71 355 3.0 8.0 0.00 0.00 0.00 23 1012.8
20260510033108 71 323 2.0 8.0 0.00 0.00 0.00 22 1012.8
20260510032559 72 355 2.0 8.0 0.00 0.00 0.00 22 1012.7
20260510032336 72 5 2.0 5.0 0.00 0.00 0.00 22 1012.7
20260510031549 73 355 2.0 5.0 0.00 0.00 0.00 22 1012.7
20260510031336 73 20 1.0 5.0 0.00 0.00 0.00 22 1012.6
20260510030535 74 13 1.0 5.0 0.00 0.00 0.00 22 1012.4
20260510030032 75 31 1.0 9.0 0.00 0.00 0.00 22 1012.4
20260510025822 75 33 2.0 9.0 0.00 0.00 0.00 22 1012.4
20260510025018 76 44 1.0 6.0 0.00 0.00 0.00 21 1012.4
20260510024511 76 33 1.0 6.0 0.00 0.00 0.00 21 1012.4
20260510024008 77 5 2.0 5.0 0.00 0.00 0.00 21 1012.4
20260510023500 77 47 2.0 7.0 0.00 0.00 0.00 20 1012.3
20260510022954 78 30 2.0 7.0 0.00 0.00 0.00 20 1012.4
20260510022447 79 30 2.0 5.0 0.00 0.00 0.00 20 1012.4
20260510021941 80 34 2.0 7.0 0.00 0.00 0.00 20 1012.6
20260510021435 80 13 2.0 8.0 0.00 0.00 0.00 20 1012.4
20260510020929 80 49 3.0 8.0 0.00 0.00 0.00 20 1012.6
20260510020423 80 337 2.0 6.0 0.00 0.00 0.00 19 1012.4
20260510015917 80 43 2.0 6.0 0.00 0.00 0.00 19 1012.4
20260510015412 80 9 3.0 7.0 0.00 0.00 0.00 18 1012.6
20260510014912 80 26 3.0 9.0 0.00 0.00 0.00 19 1012.6
20260510014359 80 23 4.0 12.0 0.00 0.00 0.00 19 1012.6
20260510013854 80 342 4.0 12.0 0.00 0.00 0.00 18 1012.7
20260510013347 80 29 3.0 9.0 0.00 0.00 0.00 18 1012.8
20260510012841 80 355 3.0 10.0 0.00 0.00 0.00 19 1012.9
20260510012412 81 355 4.0 10.0 0.00 0.00 0.00 18 1012.9
20260510012354 80 355 3.0 10.0 0.00 0.00 0.00 19 1013.0
20260510011327 81 9 5.0 10.0 0.00 0.00 0.00 18 1012.9
20260510011102 81 355 4.0 10.0 0.00 0.00 0.00 18 1012.9
20260510010311 82 331 4.0 10.0 0.00 0.00 0.00 18 1012.8
20260510005811 82 349 4.0 10.0 0.00 0.00 0.00 18 1012.7
20260510005311 82 351 2.0 10.0 0.00 0.00 0.00 17 1012.7
20260510004813 82 42 2.0 5.0 0.00 0.00 0.00 17 1012.8
20260510004317 82 0 3.0 10.0 0.00 0.00 0.00 17 1012.7
20260510003814 82 342 3.0 10.0 0.00 0.00 0.00 17 1012.7
20260510003317 82 355 3.0 9.0 0.00 0.00 0.00 16 1012.7
20260510002813 82 350 3.0 9.0 0.00 0.00 0.00 17 1012.8
20260510002548 82 44 3.0 11.0 0.00 0.00 0.00 17 1012.8
20260510001811 82 41 3.0 11.0 0.00 0.00 0.00 16 1012.8
20260510001311 83 60 3.0 8.0 0.00 0.00 0.00 16 1012.8
20260510000811 83 319 3.0 8.0 0.00 0.00 0.00 17 1012.9
20260510000311 82 49 4.0 8.0 0.00 0.00 0.00 16 1013.1
20260509235812 82 342 4.0 11.0 0.00 0.00 0.00 16 1013.0
20260509235311 83 346 3.0 11.0 0.00 0.00 0.00 15 1013.1
20260509234812 83 329 3.0 8.0 0.00 0.00 0.00 17 1013.3
20260509234311 83 36 3.0 8.0 0.00 0.00 0.00 16 1013.3
20260509233810 83 11 3.0 8.0 0.00 0.00 0.00 16 1013.4
20260509233547 83 345 3.0 13.0 0.00 0.00 0.00 16 1013.4
20260509232811 82 25 3.0 13.0 0.00 0.00 0.00 16 1013.5
20260509232310 81 26 3.0 11.0 0.00 0.00 0.00 15 1013.5
20260509231811 81 346 3.0 11.0 0.00 0.00 0.00 15 1013.6
20260509231311 81 342 2.0 5.0 0.00 0.00 0.00 14 1013.8
20260509230811 81 42 3.0 5.0 0.00 0.00 0.00 13 1013.9
20260509230312 82 289 3.0 10.0 0.00 0.00 0.00 13 1013.8